When you browse on this site, cookies collect data to enhance your experience and personalize the content and advertising you see.
Visit our Privacy Policy to learn more. By continuing to use the site, you agree to this use of cookies and data.
  • în România
  • Lista ţărilor
  • Pe 7 zile
  • Temperatura apei
  • Meteo pe hartă
  • Widget-uri
  • user-avatar
    Intrare

    Meteo pe oră la Saint-Ouen

    Astăzi, 24 August, Sâmbătă

    Timp Temperatura Precipitaţii Vânt Presiune Umiditate
    00:00 +20°C° 0 mm 2 m/s 760 mmHg 57%
    01:00 +21°C° 0 mm 1 m/s 760 mmHg 59%
    02:00 +20°C° 0 mm 1 m/s 760 mmHg 62%
    03:00 +20°C° 0 mm 1 m/s 760 mmHg 64%
    04:00 +20°C° 0 mm 1 m/s 759 mmHg 66%
    05:00 +20°C° 0 mm 1 m/s 759 mmHg 67%
    06:00 +20°C° 0 mm 1 m/s 759 mmHg 67%
    07:00 +22°C° 0 mm 1 m/s 759 mmHg 61%
    08:00 +24°C° 0 mm 1 m/s 759 mmHg 55%
    09:00 +26°C° 0 mm 2 m/s 760 mmHg 49%
    10:00 +28°C° 0 mm 2 m/s 759 mmHg 44%
    11:00 +30°C° 0 mm 2 m/s 759 mmHg 38%
    12:00 +31°C° 0 mm 2 m/s 759 mmHg 35%
    13:00 +32°C° 0 mm 1 m/s 759 mmHg 31%
    14:00 +32°C° 0 mm 1 m/s 759 mmHg 28%
    15:00 +33°C° 0 mm 1 m/s 758 mmHg 25%
    16:00 +32°C° 0 mm 1 m/s 758 mmHg 28%
    17:00 +31°C° 0 mm 1 m/s 758 mmHg 31%
    18:00 +30°C° 0 mm 1 m/s 757 mmHg 34%
    19:00 +28°C° 0 mm 2 m/s 758 mmHg 38%
    20:00 +27°C° 0 mm 2 m/s 758 mmHg 42%
    21:00 +26°C° 0 mm 2 m/s 758 mmHg 46%
    22:00 +25°C° 0 mm 2 m/s 758 mmHg 48%
    23:00 +24°C° 0 mm 2 m/s 758 mmHg 50%

    Mâine, 25 August, Duminică

    Timp Temperatura Precipitaţii Vânt Presiune Umiditate
    00:00 +24°C° 0 mm 1 m/s 758 mmHg 52%
    01:00 +23°C° 0 mm 1 m/s 758 mmHg 53%
    02:00 +23°C° 0 mm 1 m/s 758 mmHg 55%
    03:00 +22°C° 0 mm 1 m/s 758 mmHg 56%
    04:00 +22°C° 0 mm 1 m/s 758 mmHg 57%
    05:00 +22°C° 0 mm 1 m/s 758 mmHg 57%
    06:00 +22°C° 0 mm 1 m/s 758 mmHg 58%
    07:00 +24°C° 0 mm 1 m/s 758 mmHg 52%
    08:00 +26°C° 0 mm 1 m/s 759 mmHg 46%
    09:00 +29°C° 0 mm 1 m/s 759 mmHg 39%
    10:00 +30°C° 0 mm 1 m/s 759 mmHg 35%
    11:00 +32°C° 0 mm 1 m/s 759 mmHg 31%
    12:00 +34°C° 0 mm 1 m/s 758 mmHg 27%
    13:00 +34°C° 0 mm 1 m/s 758 mmHg 25%
    14:00 +35°C° 0 mm 1 m/s 758 mmHg 23%
    15:00 +35°C° 0 mm 1 m/s 758 mmHg 21%
    16:00 +34°C° 0 mm 1 m/s 758 mmHg 24%
    17:00 +33°C° 0 mm 1 m/s 758 mmHg 27%
    18:00 +31°C° 0 mm 2 m/s 758 mmHg 30%
    19:00 +30°C° 0 mm 2 m/s 758 mmHg 34%
    20:00 +28°C° 0 mm 2 m/s 758 mmHg 37%
    21:00 +27°C° 0 mm 2 m/s 759 mmHg 41%
    22:00 +26°C° 0 mm 2 m/s 759 mmHg 43%
    23:00 +26°C° 0 mm 2 m/s 759 mmHg 45%

    Poimâine, 26 August, Luni

    Timp Temperatura Precipitaţii Vânt Presiune Umiditate
    00:00 +25°C° 0 mm 1 m/s 759 mmHg 46%
    01:00 +24°C° 0 mm 1 m/s 758 mmHg 48%
    02:00 +24°C° 0 mm 1 m/s 758 mmHg 50%
    03:00 +21°C° 0 mm 0 m/s 758 mmHg 52%
    04:00 +23°C° 0 mm 1 m/s 758 mmHg 53%
    05:00 +23°C° 0 mm 1 m/s 758 mmHg 54%
    06:00 +23°C° 0 mm 1 m/s 758 mmHg 55%
    07:00 +25°C° 0 mm 1 m/s 758 mmHg 51%
    08:00 +27°C° 0 mm 1 m/s 758 mmHg 46%
    09:00 +29°C° 0 mm 1 m/s 758 mmHg 41%
    10:00 +30°C° 0 mm 2 m/s 758 mmHg 37%
    11:00 +32°C° 0 mm 2 m/s 758 mmHg 33%
    12:00 +34°C° 0 mm 2 m/s 758 mmHg 28%
    13:00 +34°C° 0 mm 2 m/s 757 mmHg 27%
    14:00 +35°C° 0 mm 2 m/s 757 mmHg 25%
    15:00 +35°C° 0 mm 2 m/s 757 mmHg 24%
    16:00 +34°C° 0 mm 2 m/s 757 mmHg 27%
    17:00 +32°C° 0 mm 2 m/s 756 mmHg 30%
    18:00 +31°C° 0 mm 2 m/s 756 mmHg 34%
    19:00 +30°C° 0 mm 2 m/s 756 mmHg 37%
    20:00 +28°C° 0 mm 2 m/s 757 mmHg 40%
    21:00 +27°C° 0 mm 2 m/s 757 mmHg 43%
    22:00 +26°C° 0 mm 2 m/s 757 mmHg 45%
    23:00 +26°C° 0 mm 2 m/s 757 mmHg 46%

    27 August, Marţi

    Timp Temperatura Precipitaţii Vânt Presiune Umiditate
    00:00 +25°C° 0 mm 1 m/s 757 mmHg 48%
    01:00 +25°C° 0 mm 1 m/s 756 mmHg 49%
    02:00 +24°C° 0 mm 1 m/s 756 mmHg 50%
    03:00 +24°C° 0 mm 1 m/s 756 mmHg 52%
    04:00 +24°C° 0 mm 1 m/s 756 mmHg 54%
    05:00 +24°C° 0 mm 1 m/s 756 mmHg 56%
    06:00 +23°C° 0 mm 1 m/s 756 mmHg 58%
    07:00 +25°C° 0 mm 2 m/s 756 mmHg 52%
    08:00 +27°C° 0 mm 2 m/s 756 mmHg 47%
    09:00 +29°C° 0 mm 2 m/s 757 mmHg 41%
    10:00 +31°C° 0 mm 2 m/s 756 mmHg 37%
    11:00 +32°C° 0 mm 2 m/s 756 mmHg 33%
    12:00 +35°C° 0 mm 2 m/s 756 mmHg 28%
    13:00 +35°C° 0 mm 2 m/s 756 mmHg 27%
    14:00 +36°C° 0 mm 2 m/s 755 mmHg 25%
    15:00 +36°C° 0 mm 2 m/s 755 mmHg 24%
    16:00 +35°C° 0 mm 2 m/s 755 mmHg 27%
    17:00 +34°C° 0 mm 2 m/s 755 mmHg 30%
    18:00 +32°C° 0 mm 2 m/s 754 mmHg 33%
    19:00 +30°C° 0 mm 2 m/s 755 mmHg 35%
    20:00 +29°C° 0 mm 2 m/s 755 mmHg 38%
    21:00 +28°C° 0 mm 2 m/s 755 mmHg 41%
    22:00 +27°C° 0 mm 2 m/s 755 mmHg 42%
    23:00 +27°C° 0 mm 2 m/s 755 mmHg 43%

    28 August, Miercuri

    Timp Temperatura Precipitaţii Vânt Presiune Umiditate
    00:00 +26°C° 0 mm 2 m/s 755 mmHg 45%
    01:00 +26°C° 0 mm 2 m/s 754 mmHg 46%
    02:00 +25°C° 0 mm 2 m/s 754 mmHg 48%
    03:00 +25°C° 0 mm 1 m/s 754 mmHg 50%
    04:00 +25°C° 0.1 mm 1 m/s 754 mmHg 52%
    05:00 +25°C° 0.1 mm 1 m/s 754 mmHg 54%
    06:00 +24°C° 0.1 mm 1 m/s 754 mmHg 55%
    07:00 +25°C° 0.2 mm 2 m/s 754 mmHg 55%
    08:00 +26°C° 0.2 mm 2 m/s 754 mmHg 54%
    09:00 +26°C° 0.2 mm 2 m/s 754 mmHg 54%
    10:00 +28°C° 0 mm 2 m/s 754 mmHg 49%
    11:00 +29°C° 0 mm 3 m/s 754 mmHg 44%
    12:00 +31°C° 0 mm 3 m/s 754 mmHg 39%
    13:00 +31°C° 0 mm 3 m/s 753 mmHg 39%
    14:00 +31°C° 0 mm 3 m/s 753 mmHg 38%
    15:00 +31°C° 0 mm 3 m/s 753 mmHg 38%
    16:00 +30°C° 0.1 mm 3 m/s 753 mmHg 41%
    17:00 +29°C° 0.1 mm 2 m/s 753 mmHg 44%
    18:00 +28°C° 0.1 mm 1 m/s 753 mmHg 47%
    19:00 +27°C° 0.3 mm 1 m/s 753 mmHg 52%
    20:00 +26°C° 0.3 mm 1 m/s 754 mmHg 58%
    21:00 +25°C° 0.3 mm 1 m/s 754 mmHg 63%
    22:00 +24°C° 0.4 mm 1 m/s 755 mmHg 67%
    23:00 +23°C° 0.4 mm 2 m/s 755 mmHg 71%

    29 August, Joi

    Timp Temperatura Precipitaţii Vânt Presiune Umiditate
    00:00 +23°C° 0.4 mm 2 m/s 755 mmHg 75%
    01:00 +21°C° 0.3 mm 2 m/s 755 mmHg 78%
    02:00 +20°C° 0.3 mm 3 m/s 755 mmHg 81%
    03:00 +20°C° 0.3 mm 3 m/s 756 mmHg 84%
    04:00 +19°C° 0 mm 3 m/s 756 mmHg 83%
    05:00 +19°C° 0 mm 3 m/s 756 mmHg 83%
    06:00 +18°C° 0 mm 3 m/s 757 mmHg 82%
    07:00 +19°C° 0 mm 4 m/s 757 mmHg 77%
    08:00 +19°C° 0 mm 4 m/s 758 mmHg 72%
    09:00 +20°C° 0 mm 4 m/s 759 mmHg 67%
    10:00 +21°C° 0 mm 4 m/s 759 mmHg 60%
    11:00 +22°C° 0 mm 4 m/s 759 mmHg 52%
    12:00 +25°C° 0 mm 4 m/s 759 mmHg 45%
    13:00 +25°C° 0 mm 4 m/s 759 mmHg 43%
    14:00 +25°C° 0 mm 4 m/s 759 mmHg 40%
    15:00 +25°C° 0 mm 4 m/s 759 mmHg 38%
    16:00 +23°C° 0 mm 4 m/s 760 mmHg 41%
    17:00 +22°C° 0 mm 4 m/s 760 mmHg 44%
    18:00 +21°C° 0 mm 4 m/s 760 mmHg 47%
    19:00 +20°C° 0 mm 3 m/s 760 mmHg 52%
    20:00 +18°C° 0 mm 3 m/s 761 mmHg 57%
    21:00 +17°C° 0 mm 3 m/s 762 mmHg 61%
    22:00 +17°C° 0 mm 2 m/s 762 mmHg 64%
    23:00 +16°C° 0 mm 2 m/s 762 mmHg 66%
    Arată mai mult